Location: Beetenbrück
(52.8113°N, 9.5946°E)
Time: 21:34:45
(UTC+00:00)

USA 245 - Pass Details

Date: 14 April 2026
Orbit: 264 x 994 km, 97.9° (Epoch: 15 October)

Event Time Altitude Azimuth Distance (km) Brightness Sun altitude
Exits shadow 20:04:32 25° 139° (SE) 1,242 4.5 -14.8°
Maximum altitude 20:06:52 58° 69° (ENE) 772 3.8 -15.0°
Drops below altitude 10° 20:11:49 10° 351° (N) 2,292 7.2 -15.6°
Sets 20:14:23 0° 348° (NNW) 3,317 8.2 -15.9°
